Starlink 11149

operational
NORAD ID: 60041 Int'l Des: 2024-112 Owner: SPXS Country: US Constellation: starlink
LEOCIRCULAR

About Starlink 11149

Description loading...

Live Position

Loading 3D Globe...

Upcoming Passes

Altitude History

Altitude vs Time

uPlot chart will show altitude changes over time

Two-Line Element Set

1 60041U 24112D 25260.66702053 .00016355 00000-0 13953-3 0 9999
2 60041 53.1571 39.3698 0000992 69.0698 291.0427 15.69720165 73806
Epoch: Sep 17, 2025 • Age: 20 hours

Current Status

Altitude 362.5 km
Velocity 7.70 km/s
Sub-Earth Point 38.15°N, 4.67°W
Launch Date Jun 8, 2024
Age 1.2 years
Type internet

Technical Details

Classification Payload
Mass 960.00 kg
Dry Mass 910.00 kg
Total Mass 960.00 kg
Length 0.30 m
Diameter 4.10 m
Span 29.00 m
Shape Box + pan
Manufacturer SPXS
Bus Type Starlink V2MD
Phase Status In Orbit
Owner/State SPXS/US

Large Constellations

Loading constellations...